Other Surface Observations
Issued by NWS

Home | Current Version | Previous Version | Text Only | Print | Product List | Glossary On
Versions: 1 2 3 4 5 6 7 8 9 10 11 12 13 14 15 16 17 18 19 20 21 22 23 24 25 26 27 28 29 30 31 32 33 34 35 36 37 38 39 40 41 42 43 44 45 46 47 48 49 50
000
SXUS52 KTAE 051818
OSOTAE
OSOTAE
North Florida/South Alabama/Southwest Georgia Weather Roundup
National Weather Service Tallahassee Florida
200 PM EDT THU MAY 05 2016

Note: "fair" indicates few or no clouds below 12,000 feet with no
significant weather and/or obstructions to visibility.

!FLZ017-115-028-034-025-051900
...North Florida...

CITY           SKY/WX    TMP DP  RH WIND       PRES   REMARKS
TALLAHASSEE    MOSUNNY   77  39  25 W18G32    29.81F
APALACHICOLA   MOSUNNY   79  47  32 N20G29    29.81F
PERRY          MOSUNNY   75  45  34 W14G22    29.79F
CROSS CITY       N/A     80  43  26 W18G26    29.77F
JACKSONVILLE   MOSUNNY   75  39  27 W25G37    29.71F
$$

!FLZ112-006-005-002-011-051900
...Florida Panhandle...

CITY           SKY/WX    TMP DP  RH WIND       PRES   REMARKS
MARIANNA       SUNNY     73  37  27 W20G28    29.83F
BONIFAY        FAIR      74  42  31 NW13G20   29.84F
PANAMA CITY NW FAIR      75  44  33 NW23G30   29.82F
TYNDALL AFB    MOSUNNY   76  49  38 NW18      29.82F
TYND DRONE APT FAIR      76  49  39 NW10      29.83F
DE FUNIAK SPR  FAIR      72  40  32 NW14G25   29.85F
EGLIN AFB      MOSUNNY   76  42  29 N21G26    29.84F
DESTIN         SUNNY     78  48  34 NW12G26   29.85F
HURLBURT       MOSUNNY   75  43  31 NW16      29.84F
CRESTVIEW      SUNNY     75  40  28 NW13G18   29.87F
PENSACOLA      SUNNY     77  44  30 NW15G25   29.87F
$$

!ALZ063-066-051900
...South Alabama...

CITY           SKY/WX    TMP DP  RH WIND       PRES   REMARKS
DOTHAN         SUNNY     71  30  21 NW14G26   29.87F
OZARK CAIRNS   MOSUNNY   72  36  26 W16G23    29.84F
FT RUCKER HELI SUNNY     73  32  22 N17G28    29.84F
RUCKER HELI 3  FAIR      70  32  24 NW13G22   29.87F
RUCKER HELI 2  NOT AVBL
FLORALA APT    SUNNY     71  38  29 N9G18     29.87F
ANDALUSIA      SUNNY     76  36  23 NW14G28   29.86F
TROY           SUNNY     69  38  32 NW14G21   29.87F
EUFALA         FAIR      71  37  28 NW10G21   29.83F
MOBILE         MOSUNNY   75  47  36 NW15G21   29.90F
$$

!GAZ120>161-051900
...Southwest and South Central Georgia...

CITY           SKY/WX    TMP DP  RH WIND       PRES   REMARKS
THOMASVILLE    FAIR      72  37  28 NW16G25   29.80F
BAINBRIDGE     SUNNY     72  37  28 NW17G26   29.82F
MOODY AFB      MOSUNNY   73  38  27 W18G30    29.76F
VALDOSTA       MOSUNNY   72  38  29 NW14G24   29.77F
MOULTRIE       SUNNY     70  36  28 NW17G23   29.80F
BLAKELY        SUNNY     72  39  30 NW10      29.83F
ALBANY         MOSUNNY   71  35  26 NW18      29.81F
TIFTON         FAIR      68  37  31 W17G23    29.78F
FITZGERALD     FAIR      71  37  28 W12G26    29.79F
CORDELE        FAIR      70  35  27 NW10G21   29.80S
AMERICUS       FAIR      66  32  28 NW12G22   29.82S
HOMERVILLE     FAIR      72  37  28 NW18G31   29.76F
$$

!GMZ750-755-770-775-051900
...Coastal and Buoy Obs...

STATION/POSITION TIME  TEMP    WIND        PRES    VSBY  WAVE
                       AIR SEA DIR/SP/G                  HT/PER
                 (UTC) (F)     (DEG/KT/KT) (MB)    (MI)  (FT/S)
KEATON BEACH     1800   71     290/ 13/ 16 1008.4F
CEDAR KEY        1800   73     310/  8/ 12 1009.4F
C TOWER          1800   69     270/ 11/ 12 1010.4F
APALACHICOLA BUO 1750   72 73  320/ 12/ 16 1010.0F         4/ 6
PANAMA CITY BUOY 1750   72 78  340/ 12/ 16 1011.3F         5/ 7
MOBILE BUOY      1800   71 75  350/ 10/ 12 1012.5F
ORANGE BCH AL BU 1750   71 76  290/  2/  4 1011.3F         1/ 5
$$




USA.gov is the U.S. government's official web portal to all federal, state and local government web resources and services.